Time,TemperatureF,DewpointF,PressureIn,WindDirection,WindDirectionDegrees,WindSpeedMPH,WindSpeedGustMPH,Humidity,HourlyPrecipIn,Conditions,Clouds,dailyrainin,SoftwareType,DateUTC
2013-08-22 00:00:00,66.9,59.8,29.92,East,85,0.0,0.0,78,0.00,,---,0.00,VWS V14.01,2013-08-22 05:00:00,
2013-08-22 00:05:00,66.6,59.9,29.92,East,85,0.0,0.0,79,0.00,,---,0.00,VWS V14.01,2013-08-22 05:05:00,
2013-08-22 00:10:00,66.4,60.0,29.92,East,85,0.0,0.0,80,0.00,,---,0.00,VWS V14.01,2013-08-22 05:10:00,
2013-08-22 00:15:00,66.1,60.1,29.93,East,85,0.0,0.0,81,0.00,,---,0.00,VWS V14.01,2013-08-22 05:15:00,
2013-08-22 00:20:00,65.8,60.2,29.93,East,85,0.0,0.0,82,0.00,,---,0.00,VWS V14.01,2013-08-22 05:20:00,
2013-08-22 00:25:00,65.6,60.0,29.93,East,85,0.0,0.0,82,0.00,,---,0.00,VWS V14.01,2013-08-22 05:25:00,
2013-08-22 00:30:00,65.5,59.9,29.94,East,85,0.0,0.0,82,0.00,,---,0.00,VWS V14.01,2013-08-22 05:30:00,
2013-08-22 00:35:00,65.6,59.3,29.94,East,79,0.0,0.0,80,0.00,,---,0.00,VWS V14.01,2013-08-22 05:35:00,
2013-08-22 00:40:00,66.1,59.4,29.94,East,79,0.0,0.0,79,0.00,,---,0.00,VWS V14.01,2013-08-22 05:40:00,
2013-08-22 00:45:00,66.4,59.3,29.94,East,89,0.0,1.0,78,0.00,,---,0.00,VWS V14.01,2013-08-22 05:45:00,
2013-08-22 00:50:00,66.6,59.2,29.94,East,90,0.0,0.0,77,0.00,,---,0.00,VWS V14.01,2013-08-22 05:50:00,
2013-08-22 00:55:00,66.6,59.5,29.94,East,88,0.0,0.0,78,0.00,,---,0.00,VWS V14.01,2013-08-22 05:55:00,
2013-08-22 01:00:00,66.4,59.3,29.93,East,89,0.0,0.0,78,0.00,,---,0.00,VWS V14.01,2013-08-22 06:00:00,
2013-08-22 01:05:00,66.6,59.2,29.93,East,86,0.0,0.0,77,0.00,,---,0.00,VWS V14.01,2013-08-22 06:05:00,
2013-08-22 01:10:00,66.8,59.0,29.93,East,88,0.0,0.0,76,0.00,,---,0.00,VWS V14.01,2013-08-22 06:10:00,
2013-08-22 01:15:00,66.9,59.1,29.93,East,90,0.0,0.0,76,0.00,,---,0.00,VWS V14.01,2013-08-22 06:15:00,
2013-08-22 01:20:00,66.9,59.1,29.93,East,89,0.0,0.0,76,0.00,,---,0.00,VWS V14.01,2013-08-22 06:20:00,
2013-08-22 01:25:00,66.8,59.4,29.93,East,88,0.0,0.0,77,0.00,,---,0.00,VWS V14.01,2013-08-22 06:25:00,
2013-08-22 01:30:00,66.4,59.0,29.93,East,88,0.0,0.0,77,0.00,,---,0.00,VWS V14.01,2013-08-22 06:30:00,
2013-08-22 01:35:00,66.4,59.0,29.93,East,100,0.0,0.0,77,0.00,,---,0.00,VWS V14.01,2013-08-22 06:35:00,
2013-08-22 01:40:00,66.3,58.9,29.93,East,100,0.0,0.0,77,0.00,,---,0.00,VWS V14.01,2013-08-22 06:40:00,
2013-08-22 01:45:00,66.3,58.9,29.94,East,99,0.0,0.0,77,0.00,,---,0.00,VWS V14.01,2013-08-22 06:45:00,
2013-08-22 01:50:00,66.1,59.0,29.94,East,100,0.0,0.0,78,0.00,,---,0.00,VWS V14.01,2013-08-22 06:50:00,
2013-08-22 01:55:00,66.0,59.0,29.94,East,99,0.0,0.0,78,0.00,,---,0.00,VWS V14.01,2013-08-22 06:55:00,
2013-08-22 02:00:00,65.8,58.8,29.95,East,99,0.0,0.0,78,0.00,,---,0.00,VWS V14.01,2013-08-22 07:00:00,
2013-08-22 02:05:00,65.5,58.8,29.95,East,92,0.0,0.0,79,0.00,,---,0.00,VWS V14.01,2013-08-22 07:05:00,
2013-08-22 02:10:00,65.2,58.9,29.95,East,86,0.0,0.0,80,0.00,,---,0.00,VWS V14.01,2013-08-22 07:10:00,
2013-08-22 02:15:00,65.2,58.9,29.95,ENE,73,0.0,0.0,80,0.00,,---,0.00,VWS V14.01,2013-08-22 07:15:00,
2013-08-22 02:20:00,65.0,58.7,29.95,ENE,72,0.0,0.0,80,0.00,,---,0.00,VWS V14.01,2013-08-22 07:20:00,
2013-08-22 02:25:00,64.8,58.5,29.95,ENE,76,0.0,2.0,80,0.00,,---,0.00,VWS V14.01,2013-08-22 07:25:00,
2013-08-22 02:30:00,64.8,58.1,29.95,NE,56,1.0,3.0,79,0.00,,---,0.00,VWS V14.01,2013-08-22 07:30:00,
2013-08-22 02:35:00,64.7,58.4,29.95,NE,56,0.0,2.0,80,0.00,,---,0.00,VWS V14.01,2013-08-22 07:35:00,
2013-08-22 02:40:00,64.3,58.0,29.95,ENE,69,0.0,2.0,80,0.00,,---,0.00,VWS V14.01,2013-08-22 07:40:00,
2013-08-22 02:45:00,64.2,57.9,29.95,ENE,58,0.0,1.0,80,0.00,,---,0.00,VWS V14.01,2013-08-22 07:45:00,
2013-08-22 02:50:00,64.0,57.7,29.95,ENE,75,1.0,1.0,80,0.00,,---,0.00,VWS V14.01,2013-08-22 07:50:00,
2013-08-22 02:55:00,64.0,57.7,29.95,ENE,64,0.0,2.0,80,0.00,,---,0.00,VWS V14.01,2013-08-22 07:55:00,
2013-08-22 03:00:00,63.7,57.8,29.95,ENE,75,0.0,2.0,81,0.00,,---,0.00,VWS V14.01,2013-08-22 08:00:00,
2013-08-22 03:05:00,63.5,57.9,29.95,ENE,66,0.0,1.0,82,0.00,,---,0.00,VWS V14.01,2013-08-22 08:05:00,
2013-08-22 03:10:00,63.4,58.2,29.95,ENE,68,0.0,1.0,83,0.00,,---,0.00,VWS V14.01,2013-08-22 08:10:00,
2013-08-22 03:15:00,63.2,58.0,29.96,ENE,66,0.0,0.0,83,0.00,,---,0.00,VWS V14.01,2013-08-22 08:15:00,
2013-08-22 03:20:00,63.2,58.3,29.96,ENE,65,0.0,1.0,84,0.00,,---,0.00,VWS V14.01,2013-08-22 08:20:00,
2013-08-22 03:25:00,63.1,58.2,29.96,ENE,69,0.0,1.0,84,0.00,,---,0.00,VWS V14.01,2013-08-22 08:25:00,
2013-08-22 03:30:00,62.9,58.0,29.96,ENE,61,0.0,1.0,84,0.00,,---,0.00,VWS V14.01,2013-08-22 08:30:00,
2013-08-22 03:35:00,62.6,58.0,29.96,ENE,59,0.0,1.0,85,0.00,,---,0.00,VWS V14.01,2013-08-22 08:35:00,
2013-08-22 03:40:00,62.6,58.0,29.96,ENE,69,0.0,1.0,85,0.00,,---,0.00,VWS V14.01,2013-08-22 08:40:00,
2013-08-22 03:45:00,62.4,57.8,29.97,ENE,66,0.0,0.0,85,0.00,,---,0.00,VWS V14.01,2013-08-22 08:45:00,
2013-08-22 03:50:00,62.3,57.7,29.97,ENE,59,0.0,1.0,85,0.00,,---,0.00,VWS V14.01,2013-08-22 08:50:00,
2013-08-22 03:55:00,62.1,57.5,29.97,ENE,59,0.0,1.0,85,0.00,,---,0.00,VWS V14.01,2013-08-22 08:55:00,
2013-08-22 04:00:00,62.1,57.5,29.98,ENE,71,0.0,1.0,85,0.00,,---,0.00,VWS V14.01,2013-08-22 09:00:00,
2013-08-22 04:05:00,62.0,57.5,29.98,ENE,75,1.0,3.0,85,0.00,,---,0.00,VWS V14.01,2013-08-22 09:05:00,
2013-08-22 04:10:00,62.0,57.5,29.98,East,79,0.0,3.0,85,0.00,,---,0.00,VWS V14.01,2013-08-22 09:10:00,
2013-08-22 04:15:00,62.0,57.5,29.99,ENE,66,3.0,3.0,85,0.00,,---,0.00,VWS V14.01,2013-08-22 09:15:00,
2013-08-22 04:20:00,62.0,57.1,29.99,ENE,76,0.0,3.0,84,0.00,,---,0.00,VWS V14.01,2013-08-22 09:20:00,
2013-08-22 04:25:00,62.0,57.1,29.99,NE,40,2.0,2.0,84,0.00,,---,0.00,VWS V14.01,2013-08-22 09:25:00,
2013-08-22 04:30:00,62.0,56.8,29.99,ENE,61,1.0,3.0,83,0.00,,---,0.00,VWS V14.01,2013-08-22 09:30:00,
2013-08-22 04:35:00,62.1,56.9,29.99,East,80,3.0,3.0,83,0.00,,---,0.00,VWS V14.01,2013-08-22 09:35:00,
2013-08-22 04:40:00,62.1,56.9,29.99,ENE,72,2.0,6.0,83,0.00,,---,0.00,VWS V14.01,2013-08-22 09:40:00,
2013-08-22 04:45:00,62.1,56.9,29.99,ENE,59,2.0,4.0,83,0.00,,---,0.00,VWS V14.01,2013-08-22 09:45:00,
2013-08-22 04:50:00,61.8,56.6,29.99,East,85,1.0,4.0,83,0.00,,---,0.00,VWS V14.01,2013-08-22 09:50:00,
2013-08-22 04:55:00,61.8,56.6,29.99,ENE,75,0.0,5.0,83,0.00,,---,0.00,VWS V14.01,2013-08-22 09:55:00,
2013-08-22 05:00:00,62.0,56.8,29.99,ESE,103,0.0,6.0,83,0.00,,---,0.00,VWS V14.01,2013-08-22 10:00:00,
2013-08-22 05:05:00,62.0,56.5,29.99,East,83,1.0,4.0,82,0.00,,---,0.00,VWS V14.01,2013-08-22 10:05:00,
2013-08-22 05:10:00,62.0,56.5,29.99,ENE,73,0.0,6.0,82,0.00,,---,0.00,VWS V14.01,2013-08-22 10:10:00,
2013-08-22 05:15:00,62.0,56.5,29.99,ENE,72,0.0,5.0,82,0.00,,---,0.00,VWS V14.01,2013-08-22 10:15:00,
2013-08-22 05:20:00,62.0,56.1,29.99,East,80,1.0,5.0,81,0.00,,---,0.00,VWS V14.01,2013-08-22 10:20:00,
2013-08-22 05:25:00,61.8,56.2,29.99,East,80,0.0,4.0,82,0.00,,---,0.00,VWS V14.01,2013-08-22 10:25:00,
2013-08-22 05:30:00,61.6,56.1,29.99,ENE,65,0.0,4.0,82,0.00,,---,0.00,VWS V14.01,2013-08-22 10:30:00,
2013-08-22 05:35:00,61.5,56.0,29.99,ENE,73,0.0,5.0,82,0.00,,---,0.00,VWS V14.01,2013-08-22 10:35:00,
2013-08-22 05:40:00,61.5,56.0,29.99,NNE,25,2.0,5.0,82,0.00,,---,0.00,VWS V14.01,2013-08-22 10:40:00,
2013-08-22 05:45:00,61.5,55.6,30.00,NE,55,0.0,3.0,81,0.00,,---,0.00,VWS V14.01,2013-08-22 10:45:00,
2013-08-22 05:50:00,61.5,55.6,30.00,ENE,78,2.0,3.0,81,0.00,,---,0.00,VWS V14.01,2013-08-22 10:50:00,
2013-08-22 07:27:00,62.0,52.1,30.02,East,97,0.0,6.0,70,0.00,,---,0.00,VWS V14.01,2013-08-22 12:27:00,
2013-08-22 07:32:00,62.1,52.2,30.03,ESE,103,0.0,7.0,70,0.00,,---,0.00,VWS V14.01,2013-08-22 12:32:00,
2013-08-22 07:37:00,62.4,52.5,30.03,East,93,0.0,7.0,70,0.00,,---,0.00,VWS V14.01,2013-08-22 12:37:00,
2013-08-22 07:42:00,62.7,52.4,30.03,East,100,0.0,1.0,69,0.00,,---,0.00,VWS V14.01,2013-08-22 12:42:00,
2013-08-22 07:47:00,63.1,52.4,30.02,East,96,1.0,6.0,68,0.00,,---,0.00,VWS V14.01,2013-08-22 12:47:00,
2013-08-22 07:52:00,63.4,51.9,30.02,ESE,109,3.0,3.0,66,0.00,,---,0.00,VWS V14.01,2013-08-22 12:52:00,
2013-08-22 07:57:00,63.7,52.1,30.02,East,82,0.0,4.0,66,0.00,,---,0.00,VWS V14.01,2013-08-22 12:57:00,
2013-08-22 08:00:00,63.9,51.9,30.03,ESE,106,6.0,7.0,65,0.00,,---,0.00,VWS V14.01,2013-08-22 13:00:00,
2013-08-22 08:05:00,64.2,52.2,30.03,ESE,110,0.0,6.0,65,0.00,,---,0.00,VWS V14.01,2013-08-22 13:05:00,
2013-08-22 08:10:00,64.3,51.5,30.03,East,99,0.0,6.0,63,0.00,,---,0.00,VWS V14.01,2013-08-22 13:10:00,
2013-08-22 08:15:00,64.5,51.6,30.03,East,79,3.0,7.0,63,0.00,,---,0.00,VWS V14.01,2013-08-22 13:15:00,
2013-08-22 08:20:00,64.5,51.2,30.03,East,99,1.0,7.0,62,0.00,,---,0.00,VWS V14.01,2013-08-22 13:20:00,
2013-08-22 08:25:00,64.7,51.8,30.03,East,96,1.0,5.0,63,0.00,,---,0.00,VWS V14.01,2013-08-22 13:25:00,
2013-08-22 08:30:00,65.2,51.9,30.04,ESE,112,5.0,6.0,62,0.00,,---,0.00,VWS V14.01,2013-08-22 13:30:00,
2013-08-22 08:35:00,65.6,51.8,30.04,ESE,113,0.0,5.0,61,0.00,,---,0.00,VWS V14.01,2013-08-22 13:35:00,
2013-08-22 08:40:00,66.1,51.4,30.04,ESE,119,0.0,5.0,59,0.00,,---,0.00,VWS V14.01,2013-08-22 13:40:00,
2013-08-22 08:45:00,66.6,52.3,30.04,ESE,103,0.0,3.0,60,0.00,,---,0.00,VWS V14.01,2013-08-22 13:45:00,
2013-08-22 08:50:00,67.3,51.6,30.04,ESE,112,0.0,3.0,57,0.00,,---,0.00,VWS V14.01,2013-08-22 13:50:00,
2013-08-22 08:55:00,67.1,50.4,30.04,East,97,2.0,6.0,55,0.00,,---,0.00,VWS V14.01,2013-08-22 13:55:00,
2013-08-22 09:00:00,67.1,50.9,30.04,East,99,0.0,6.0,56,0.00,,---,0.00,VWS V14.01,2013-08-22 14:00:00,
2013-08-22 09:05:00,67.6,50.9,30.04,East,95,1.0,5.0,55,0.00,,---,0.00,VWS V14.01,2013-08-22 14:05:00,
2013-08-22 09:10:00,68.1,50.8,30.04,ENE,65,1.0,6.0,54,0.00,,---,0.00,VWS V14.01,2013-08-22 14:10:00,
2013-08-22 09:15:00,68.6,51.3,30.04,East,93,1.0,6.0,54,0.00,,---,0.00,VWS V14.01,2013-08-22 14:15:00,
2013-08-22 09:20:00,68.8,51.5,30.04,SE,124,0.0,6.0,54,0.00,,---,0.00,VWS V14.01,2013-08-22 14:20:00,
2013-08-22 09:25:00,69.1,50.8,30.04,SE,136,3.0,5.0,52,0.00,,---,0.00,VWS V14.01,2013-08-22 14:25:00,
2013-08-22 09:30:00,69.3,50.9,30.05,ESE,104,1.0,5.0,52,0.00,,---,0.00,VWS V14.01,2013-08-22 14:30:00,
2013-08-22 09:35:00,69.8,51.4,30.05,East,93,1.0,3.0,52,0.00,,---,0.00,VWS V14.01,2013-08-22 14:35:00,
2013-08-22 09:40:00,69.8,50.9,30.05,ENE,72,0.0,6.0,51,0.00,,---,0.00,VWS V14.01,2013-08-22 14:40:00,
2013-08-22 09:45:00,70.3,51.3,30.04,ENE,69,2.0,7.0,51,0.00,,---,0.00,VWS V14.01,2013-08-22 14:45:00,
2013-08-22 09:50:00,70.4,50.9,30.04,East,92,2.0,11.0,50,0.00,,---,0.00,VWS V14.01,2013-08-22 14:50:00,
2013-08-22 09:55:00,70.6,50.5,30.04,East,96,1.0,7.0,49,0.00,,---,0.00,VWS V14.01,2013-08-22 14:55:00,
2013-08-22 10:00:00,70.9,51.3,30.05,East,82,5.0,7.0,50,0.00,,---,0.00,VWS V14.01,2013-08-22 15:00:00,
2013-08-22 10:05:00,71.3,51.2,30.05,East,93,3.0,6.0,49,0.00,,---,0.00,VWS V14.01,2013-08-22 15:05:00,
2013-08-22 10:10:00,71.6,50.3,30.05,ESE,123,2.0,7.0,47,0.00,,---,0.00,VWS V14.01,2013-08-22 15:10:00,
2013-08-22 10:15:00,72.0,51.8,30.05,East,99,0.0,2.0,49,0.00,,---,0.00,VWS V14.01,2013-08-22 15:15:00,
2013-08-22 10:20:00,72.5,51.2,30.05,East,89,0.0,6.0,47,0.00,,---,0.00,VWS V14.01,2013-08-22 15:20:00,
2013-08-22 10:25:00,72.8,49.6,30.05,East,99,1.0,10.0,44,0.00,,---,0.00,VWS V14.01,2013-08-22 15:25:00,
2013-08-22 10:30:00,73.0,49.8,30.05,East,80,6.0,10.0,44,0.00,,---,0.00,VWS V14.01,2013-08-22 15:30:00,
2013-08-22 10:35:00,72.8,49.0,30.05,ESE,112,1.0,10.0,43,0.00,,---,0.00,VWS V14.01,2013-08-22 15:35:00,
2013-08-22 10:40:00,72.8,49.0,30.05,ESE,116,0.0,10.0,43,0.00,,---,0.00,VWS V14.01,2013-08-22 15:40:00,
2013-08-22 10:45:00,73.0,49.2,30.05,ESE,114,2.0,8.0,43,0.00,,---,0.00,VWS V14.01,2013-08-22 15:45:00,
2013-08-22 10:50:00,73.5,49.0,30.05,ESE,104,5.0,8.0,42,0.00,,---,0.00,VWS V14.01,2013-08-22 15:50:00,
2013-08-22 10:55:00,73.5,49.7,30.05,East,79,0.0,7.0,43,0.00,,---,0.00,VWS V14.01,2013-08-22 15:55:00,
2013-08-22 11:00:00,73.7,47.9,30.05,SE,126,5.0,7.0,40,0.00,,---,0.00,VWS V14.01,2013-08-22 16:00:00,
2013-08-22 11:05:00,73.9,48.1,30.05,ESE,119,3.0,6.0,40,0.00,,---,0.00,VWS V14.01,2013-08-22 16:05:00,
2013-08-22 11:10:00,74.2,49.0,30.05,ENE,65,0.0,8.0,41,0.00,,---,0.00,VWS V14.01,2013-08-22 16:10:00,
2013-08-22 11:15:00,74.7,48.8,30.05,East,85,1.0,6.0,40,0.00,,---,0.00,VWS V14.01,2013-08-22 16:15:00,
2013-08-22 11:20:00,75.1,47.8,30.05,East,82,2.0,7.0,38,0.00,,---,0.00,VWS V14.01,2013-08-22 16:20:00,
2013-08-22 11:25:00,75.6,49.6,30.05,East,85,1.0,7.0,40,0.00,,---,0.00,VWS V14.01,2013-08-22 16:25:00,
2013-08-22 11:30:00,75.8,48.4,30.05,East,95,0.0,7.0,38,0.00,,---,0.00,VWS V14.01,2013-08-22 16:30:00,
2013-08-22 11:35:00,76.1,48.0,30.05,NE,38,1.0,6.0,37,0.00,,---,0.00,VWS V14.01,2013-08-22 16:35:00,
2013-08-22 11:40:00,76.1,49.4,30.05,NE,35,2.0,6.0,39,0.00,,---,0.00,VWS V14.01,2013-08-22 16:40:00,
2013-08-22 11:45:00,76.1,48.7,30.05,East,97,1.0,9.0,38,0.00,,---,0.00,VWS V14.01,2013-08-22 16:45:00,
2013-08-22 11:50:00,76.5,49.7,30.05,ESE,123,2.0,9.0,39,0.00,,---,0.00,VWS V14.01,2013-08-22 16:50:00,
2013-08-22 11:55:00,76.8,49.3,30.05,East,100,4.0,4.0,38,0.00,,---,0.00,VWS V14.01,2013-08-22 16:55:00,
2013-08-22 12:00:00,76.8,50.0,30.04,ESE,116,1.0,8.0,39,0.00,,---,0.00,VWS V14.01,2013-08-22 17:00:00,
2013-08-22 12:05:00,76.7,48.5,30.04,East,88,0.0,10.0,37,0.00,,---,0.00,VWS V14.01,2013-08-22 17:05:00,
2013-08-22 12:10:00,77.0,49.5,30.04,ENE,62,2.0,10.0,38,0.00,,---,0.00,VWS V14.01,2013-08-22 17:10:00,
2013-08-22 12:15:00,77.4,49.1,30.04,NE,44,3.0,11.0,37,0.00,,---,0.00,VWS V14.01,2013-08-22 17:15:00,
2013-08-22 12:20:00,77.6,49.3,30.04,NE,52,1.0,11.0,37,0.00,,---,0.00,VWS V14.01,2013-08-22 17:20:00,
2013-08-22 12:25:00,77.7,49.4,30.04,NE,45,0.0,4.0,37,0.00,,---,0.00,VWS V14.01,2013-08-22 17:25:00,
2013-08-22 12:29:00,78.1,51.2,30.03,ENE,64,1.0,4.0,39,0.00,,---,0.00,VWS V14.01,2013-08-22 17:29:00,
2013-08-22 12:34:00,78.6,50.9,30.03,NE,54,1.0,3.0,38,0.00,,---,0.00,VWS V14.01,2013-08-22 17:34:00,
2013-08-22 12:39:00,79.0,50.5,30.03,ENE,68,3.0,7.0,37,0.00,,---,0.00,VWS V14.01,2013-08-22 17:39:00,
2013-08-22 12:44:00,79.2,50.7,30.03,East,93,1.0,10.0,37,0.00,,---,0.00,VWS V14.01,2013-08-22 17:44:00,
2013-08-22 12:49:00,79.6,51.8,30.03,ENE,75,0.0,10.0,38,0.00,,---,0.00,VWS V14.01,2013-08-22 17:49:00,
2013-08-22 12:54:00,79.9,50.6,30.03,ENE,66,1.0,7.0,36,0.00,,---,0.00,VWS V14.01,2013-08-22 17:54:00,
2013-08-22 12:59:00,79.8,50.5,30.03,East,88,1.0,7.0,36,0.00,,---,0.00,VWS V14.01,2013-08-22 17:59:00,
2013-08-22 13:04:00,79.9,50.6,30.03,East,82,1.0,3.0,36,0.00,,---,0.00,VWS V14.01,2013-08-22 18:04:00,
2013-08-22 13:09:00,80.1,52.2,30.03,ENE,72,0.0,3.0,38,0.00,,---,0.00,VWS V14.01,2013-08-22 18:09:00,
2013-08-22 13:14:00,80.1,50.8,30.03,ENE,68,0.0,6.0,36,0.00,,---,0.00,VWS V14.01,2013-08-22 18:14:00,
2013-08-22 13:19:00,80.1,49.2,30.03,ENE,59,1.0,6.0,34,0.00,,---,0.00,VWS V14.01,2013-08-22 18:19:00,
2013-08-22 13:24:00,80.3,50.9,30.03,East,100,0.0,1.0,36,0.00,,---,0.00,VWS V14.01,2013-08-22 18:24:00,
2013-08-22 13:29:00,80.3,50.9,30.03,ENE,58,0.0,6.0,36,0.00,,---,0.00,VWS V14.01,2013-08-22 18:29:00,
2013-08-22 13:34:00,80.5,49.6,30.02,NE,49,2.0,4.0,34,0.00,,---,0.00,VWS V14.01,2013-08-22 18:34:00,
2013-08-22 13:39:00,80.9,49.9,30.02,ESE,106,1.0,5.0,34,0.00,,---,0.00,VWS V14.01,2013-08-22 18:39:00,
2013-08-22 13:44:00,80.7,50.5,30.02,East,85,1.0,4.0,35,0.00,,---,0.00,VWS V14.01,2013-08-22 18:44:00,
2013-08-22 13:49:00,81.1,49.3,30.02,East,80,0.0,4.0,33,0.00,,---,0.00,VWS V14.01,2013-08-22 18:49:00,
2013-08-22 13:54:00,81.2,48.6,30.02,ENE,76,0.0,3.0,32,0.00,,---,0.00,VWS V14.01,2013-08-22 18:54:00,
2013-08-22 13:59:00,81.4,49.6,30.02,East,93,0.0,3.0,33,0.00,,---,0.00,VWS V14.01,2013-08-22 18:59:00,
2013-08-22 14:04:00,81.8,49.1,30.02,East,85,0.0,2.0,32,0.00,,---,0.00,VWS V14.01,2013-08-22 19:04:00,
2013-08-22 14:09:00,81.8,49.1,30.02,East,90,0.0,3.0,32,0.00,,---,0.00,VWS V14.01,2013-08-22 19:09:00,
2013-08-22 14:14:00,81.8,49.9,30.02,ENE,71,0.0,1.0,33,0.00,,---,0.00,VWS V14.01,2013-08-22 19:14:00,
2013-08-22 14:19:00,81.8,50.7,30.02,ENE,59,0.0,6.0,34,0.00,,---,0.00,VWS V14.01,2013-08-22 19:19:00,
2013-08-22 14:24:00,82.2,49.4,30.02,NE,47,3.0,7.0,32,0.00,,---,0.00,VWS V14.01,2013-08-22 19:24:00,
2013-08-22 14:29:00,82.0,52.4,30.02,NE,34,1.0,7.0,36,0.00,,---,0.00,VWS V14.01,2013-08-22 19:29:00,
2013-08-22 14:34:00,82.2,47.7,30.01,ENE,73,1.0,3.0,30,0.00,,---,0.00,VWS V14.01,2013-08-22 19:34:00,
2013-08-22 14:39:00,82.2,47.7,30.01,ENE,73,1.0,5.0,30,0.00,,---,0.00,VWS V14.01,2013-08-22 19:39:00,
2013-08-22 14:44:00,82.4,47.9,30.01,East,93,0.0,2.0,30,0.00,,---,0.00,VWS V14.01,2013-08-22 19:44:00,
2013-08-22 14:49:00,82.6,50.6,30.01,NE,52,1.0,3.0,33,0.00,,---,0.00,VWS V14.01,2013-08-22 19:49:00,
2013-08-22 14:54:00,82.6,48.9,30.01,ENE,73,0.0,2.0,31,0.00,,---,0.00,VWS V14.01,2013-08-22 19:54:00,
2013-08-22 14:59:00,82.8,50.0,30.01,East,92,0.0,2.0,32,0.00,,---,0.00,VWS V14.01,2013-08-22 19:59:00,
2013-08-22 15:04:00,82.8,49.1,30.01,East,88,0.0,1.0,31,0.00,,---,0.00,VWS V14.01,2013-08-22 20:04:00,
2013-08-22 15:09:00,82.6,48.9,30.01,East,96,0.0,2.0,31,0.00,,---,0.00,VWS V14.01,2013-08-22 20:09:00,
2013-08-22 15:14:00,82.6,49.8,30.01,ENE,69,0.0,3.0,32,0.00,,---,0.00,VWS V14.01,2013-08-22 20:14:00,
2013-08-22 15:19:00,82.8,50.8,30.01,ENE,75,0.0,4.0,33,0.00,,---,0.00,VWS V14.01,2013-08-22 20:19:00,
2013-08-22 15:24:00,82.8,49.1,30.01,NE,41,0.0,3.0,31,0.00,,---,0.00,VWS V14.01,2013-08-22 20:24:00,
2013-08-22 15:29:00,83.0,49.3,30.01,ENE,65,2.0,3.0,31,0.00,,---,0.00,VWS V14.01,2013-08-22 20:29:00,
2013-08-22 15:34:00,83.0,49.3,30.02,NE,52,0.0,2.0,31,0.00,,---,0.00,VWS V14.01,2013-08-22 20:34:00,
2013-08-22 15:39:00,83.0,48.4,30.02,NE,55,0.0,2.0,30,0.00,,---,0.00,VWS V14.01,2013-08-22 20:39:00,
2013-08-22 15:44:00,82.8,50.0,30.02,NE,44,0.0,3.0,32,0.00,,---,0.00,VWS V14.01,2013-08-22 20:44:00,
2013-08-22 15:49:00,83.0,48.4,30.02,ENE,59,0.0,3.0,30,0.00,,---,0.00,VWS V14.01,2013-08-22 20:49:00,
2013-08-22 15:54:00,83.2,48.6,30.02,NNE,28,1.0,2.0,30,0.00,,---,0.00,VWS V14.01,2013-08-22 20:54:00,
2013-08-22 15:59:00,83.2,49.5,30.02,NNE,32,0.0,4.0,31,0.00,,---,0.00,VWS V14.01,2013-08-22 20:59:00,
2013-08-22 16:04:00,83.0,48.4,30.01,ESE,109,0.0,2.0,30,0.00,,---,0.00,VWS V14.01,2013-08-22 21:04:00,
2013-08-22 16:09:00,83.0,48.4,30.01,East,96,0.0,2.0,30,0.00,,---,0.00,VWS V14.01,2013-08-22 21:09:00,
2013-08-22 16:14:00,82.8,47.3,30.01,East,90,0.0,1.0,29,0.00,,---,0.00,VWS V14.01,2013-08-22 21:14:00,
2013-08-22 16:19:00,83.0,51.8,30.01,ENE,65,0.0,1.0,34,0.00,,---,0.00,VWS V14.01,2013-08-22 21:19:00,
2013-08-22 16:24:00,83.2,48.6,30.01,NE,55,1.0,2.0,30,0.00,,---,0.00,VWS V14.01,2013-08-22 21:24:00,
2013-08-22 16:29:00,83.4,50.5,30.01,ENE,59,0.0,2.0,32,0.00,,---,0.00,VWS V14.01,2013-08-22 21:29:00,
2013-08-22 16:34:00,83.0,50.1,30.01,NE,54,0.0,2.0,32,0.00,,---,0.00,VWS V14.01,2013-08-22 21:34:00,
2013-08-22 16:39:00,83.0,50.1,30.01,ENE,64,0.0,2.0,32,0.00,,---,0.00,VWS V14.01,2013-08-22 21:39:00,
2013-08-22 16:44:00,83.2,48.6,30.01,ENE,69,0.0,2.0,30,0.00,,---,0.00,VWS V14.01,2013-08-22 21:44:00,
2013-08-22 16:49:00,83.2,49.5,30.01,ESE,113,0.0,3.0,31,0.00,,---,0.00,VWS V14.01,2013-08-22 21:49:00,
2013-08-22 16:54:00,83.2,50.3,30.01,NE,45,2.0,5.0,32,0.00,,---,0.00,VWS V14.01,2013-08-22 21:54:00,
2013-08-22 16:59:00,82.8,50.8,30.01,NE,55,2.0,7.0,33,0.00,,---,0.00,VWS V14.01,2013-08-22 21:59:00,
2013-08-22 17:04:00,82.4,49.6,30.00,ENE,59,0.0,3.0,32,0.00,,---,0.00,VWS V14.01,2013-08-22 22:04:00,
2013-08-22 17:09:00,82.4,51.2,30.00,ENE,76,0.0,3.0,34,0.00,,---,0.00,VWS V14.01,2013-08-22 22:09:00,
2013-08-22 17:14:00,82.6,50.6,30.00,ENE,61,0.0,3.0,33,0.00,,---,0.00,VWS V14.01,2013-08-22 22:14:00,
2013-08-22 17:19:00,82.8,51.6,30.00,ENE,72,0.0,3.0,34,0.00,,---,0.00,VWS V14.01,2013-08-22 22:19:00,
2013-08-22 17:24:00,83.0,51.8,30.00,ENE,65,0.0,0.0,34,0.00,,---,0.00,VWS V14.01,2013-08-22 22:24:00,
2013-08-22 17:29:00,82.8,51.6,30.00,East,99,0.0,2.0,34,0.00,,---,0.00,VWS V14.01,2013-08-22 22:29:00,
2013-08-22 17:34:00,82.6,51.4,30.00,NE,55,1.0,3.0,34,0.00,,---,0.00,VWS V14.01,2013-08-22 22:34:00,
2013-08-22 17:39:00,82.0,50.9,30.00,NE,56,1.0,3.0,34,0.00,,---,0.00,VWS V14.01,2013-08-22 22:39:00,
2013-08-22 17:44:00,81.6,50.5,30.00,ENE,66,1.0,3.0,34,0.00,,---,0.00,VWS V14.01,2013-08-22 22:44:00,
2013-08-22 17:49:00,81.6,52.8,30.00,NE,54,1.0,3.0,37,0.00,,---,0.00,VWS V14.01,2013-08-22 22:49:00,
2013-08-22 17:54:00,81.4,51.9,30.00,NE,52,0.0,0.0,36,0.00,,---,0.00,VWS V14.01,2013-08-22 22:54:00,
2013-08-22 17:59:00,81.2,51.7,30.00,ENE,64,0.0,3.0,36,0.00,,---,0.00,VWS V14.01,2013-08-22 22:59:00,
2013-08-22 18:04:00,81.1,51.7,30.00,ENE,58,0.0,1.0,36,0.00,,---,0.00,VWS V14.01,2013-08-22 23:04:00,
2013-08-22 18:09:00,80.9,52.2,30.00,ENE,59,0.0,1.0,37,0.00,,---,0.00,VWS V14.01,2013-08-22 23:09:00,
2013-08-22 18:14:00,80.9,52.9,30.00,ENE,64,0.0,1.0,38,0.00,,---,0.00,VWS V14.01,2013-08-22 23:14:00,
2013-08-22 18:19:00,80.7,52.0,30.00,ENE,58,0.0,1.0,37,0.00,,---,0.00,VWS V14.01,2013-08-22 23:19:00,
2013-08-22 18:24:00,80.5,52.6,30.00,ENE,59,0.0,1.0,38,0.00,,---,0.00,VWS V14.01,2013-08-22 23:24:00,
2013-08-22 18:29:00,80.3,52.4,30.00,NE,56,0.0,1.0,38,0.00,,---,0.00,VWS V14.01,2013-08-22 23:29:00,
2013-08-22 18:34:00,80.1,52.2,30.00,NE,55,0.0,1.0,38,0.00,,---,0.00,VWS V14.01,2013-08-22 23:34:00,
2013-08-22 18:39:00,79.8,52.7,30.00,NE,54,0.0,1.0,39,0.00,,---,0.00,VWS V14.01,2013-08-22 23:39:00,
2013-08-22 18:44:00,79.4,53.0,30.00,NE,55,0.0,1.0,40,0.00,,---,0.00,VWS V14.01,2013-08-22 23:44:00,
2013-08-22 18:49:00,79.0,52.6,30.00,NE,54,0.0,1.0,40,0.00,,---,0.00,VWS V14.01,2013-08-22 23:49:00,
2013-08-22 18:54:00,78.6,53.6,30.00,NE,54,0.0,0.0,42,0.00,,---,0.00,VWS V14.01,2013-08-22 23:54:00,
2013-08-22 18:59:00,78.5,53.5,30.00,NE,54,0.0,0.0,42,0.00,,---,0.00,VWS V14.01,2013-08-22 23:59:00,
2013-08-22 19:04:00,78.3,54.0,30.00,NE,54,0.0,0.0,43,0.00,,---,0.00,VWS V14.01,2013-08-23 00:04:00,
2013-08-22 19:09:00,78.1,55.0,30.00,NE,54,0.0,0.0,45,0.00,,---,0.00,VWS V14.01,2013-08-23 00:09:00,
2013-08-22 19:14:00,77.7,54.7,30.00,NE,54,0.0,0.0,45,0.00,,---,0.00,VWS V14.01,2013-08-23 00:14:00,
2013-08-22 19:19:00,77.4,54.4,29.99,NE,54,0.0,0.0,45,0.00,,---,0.00,VWS V14.01,2013-08-23 00:19:00,
2013-08-22 19:24:00,76.8,55.1,29.99,NE,54,0.0,0.0,47,0.00,,---,0.00,VWS V14.01,2013-08-23 00:24:00,
2013-08-22 19:29:00,76.3,55.2,29.99,NE,54,0.0,0.0,48,0.00,,---,0.00,VWS V14.01,2013-08-23 00:29:00,
2013-08-22 19:34:00,75.6,55.1,30.00,NE,54,0.0,0.0,49,0.00,,---,0.00,VWS V14.01,2013-08-23 00:34:00,
2013-08-22 19:39:00,75.3,55.4,30.00,NE,54,0.0,0.0,50,0.00,,---,0.00,VWS V14.01,2013-08-23 00:39:00,
2013-08-22 19:44:00,74.7,56.5,30.00,NE,54,0.0,0.0,53,0.00,,---,0.00,VWS V14.01,2013-08-23 00:44:00,
2013-08-22 19:49:00,74.2,56.0,30.00,NE,54,0.0,0.0,53,0.00,,---,0.00,VWS V14.01,2013-08-23 00:49:00,
2013-08-22 19:54:00,73.7,55.0,30.00,NE,54,0.0,0.0,52,0.00,,---,0.00,VWS V14.01,2013-08-23 00:54:00,
2013-08-22 19:59:00,73.2,54.5,30.00,NE,54,0.0,0.0,52,0.00,,---,0.00,VWS V14.01,2013-08-23 00:59:00,
2013-08-22 20:04:00,72.5,54.9,30.00,NE,54,0.0,0.0,54,0.00,,---,0.00,VWS V14.01,2013-08-23 01:04:00,
2013-08-22 20:09:00,72.0,55.5,30.00,NE,54,0.0,0.0,56,0.00,,---,0.00,VWS V14.01,2013-08-23 01:09:00,
2013-08-22 20:14:00,71.1,56.1,30.00,NE,54,0.0,0.0,59,0.00,,---,0.00,VWS V14.01,2013-08-23 01:14:00,
2013-08-22 20:19:00,70.3,56.7,30.00,NE,54,0.0,0.0,62,0.00,,---,0.00,VWS V14.01,2013-08-23 01:19:00,
2013-08-22 20:24:00,69.6,56.9,30.00,NE,54,0.0,0.0,64,0.00,,---,0.00,VWS V14.01,2013-08-23 01:24:00,
2013-08-22 20:29:00,69.1,57.7,30.00,NE,54,0.0,0.0,67,0.00,,---,0.00,VWS V14.01,2013-08-23 01:29:00,
2013-08-22 20:34:00,68.6,56.8,30.01,NE,54,0.0,0.0,66,0.00,,---,0.00,VWS V14.01,2013-08-23 01:34:00,
2013-08-22 20:39:00,68.3,56.5,30.01,NE,54,0.0,0.0,66,0.00,,---,0.00,VWS V14.01,2013-08-23 01:39:00,
2013-08-22 20:44:00,67.9,56.5,30.01,NE,54,0.0,0.0,67,0.00,,---,0.00,VWS V14.01,2013-08-23 01:44:00,
2013-08-22 20:49:00,67.6,55.8,30.02,NE,54,0.0,0.0,66,0.00,,---,0.00,VWS V14.01,2013-08-23 01:49:00,
2013-08-22 20:53:00,67.3,55.6,30.02,NE,54,0.0,0.0,66,0.00,,---,0.00,VWS V14.01,2013-08-23 01:53:00,
2013-08-22 20:58:00,67.1,55.0,30.02,NE,54,0.0,0.0,65,0.00,,---,0.00,VWS V14.01,2013-08-23 01:58:00,
2013-08-22 21:03:00,66.9,55.2,30.02,NE,54,0.0,0.0,66,0.00,,---,0.00,VWS V14.01,2013-08-23 02:03:00,
2013-08-22 21:08:00,66.8,55.1,30.02,NE,54,0.0,0.0,66,0.00,,---,0.00,VWS V14.01,2013-08-23 02:08:00,
2013-08-22 21:13:00,66.6,54.5,30.02,NE,56,0.0,0.0,65,0.00,,---,0.00,VWS V14.01,2013-08-23 02:13:00,
2013-08-22 21:18:00,66.6,53.2,30.02,NE,56,0.0,0.0,62,0.00,,---,0.00,VWS V14.01,2013-08-23 02:18:00,
2013-08-22 21:23:00,66.9,52.6,30.02,NE,56,0.0,0.0,60,0.00,,---,0.00,VWS V14.01,2013-08-23 02:23:00,
2013-08-22 21:28:00,67.1,52.3,30.02,NE,56,0.0,0.0,59,0.00,,---,0.00,VWS V14.01,2013-08-23 02:28:00,
2013-08-22 21:33:00,67.1,52.8,30.03,NE,56,0.0,0.0,60,0.00,,---,0.00,VWS V14.01,2013-08-23 02:33:00,
2013-08-22 21:38:00,67.1,52.8,30.03,NE,56,0.0,0.0,60,0.00,,---,0.00,VWS V14.01,2013-08-23 02:38:00,
2013-08-22 21:43:00,67.1,52.8,30.03,NE,56,0.0,0.0,60,0.00,,---,0.00,VWS V14.01,2013-08-23 02:43:00,
2013-08-22 21:48:00,67.1,52.8,30.03,NE,56,0.0,0.0,60,0.00,,---,0.00,VWS V14.01,2013-08-23 02:48:00,
2013-08-22 21:53:00,66.8,52.9,30.03,NE,56,0.0,0.0,61,0.00,,---,0.00,VWS V14.01,2013-08-23 02:53:00,
2013-08-22 21:58:00,66.4,53.0,30.03,NE,56,0.0,0.0,62,0.00,,---,0.00,VWS V14.01,2013-08-23 02:58:00,
2013-08-22 22:03:00,66.1,53.2,30.03,NE,56,0.0,0.0,63,0.00,,---,0.00,VWS V14.01,2013-08-23 03:03:00,
2013-08-22 22:08:00,66.0,53.1,30.03,NE,56,0.0,0.0,63,0.00,,---,0.00,VWS V14.01,2013-08-23 03:08:00,
2013-08-22 22:13:00,65.6,52.7,30.03,NE,56,0.0,0.0,63,0.00,,---,0.00,VWS V14.01,2013-08-23 03:13:00,
2013-08-22 22:18:00,65.5,52.6,30.03,NE,56,0.0,0.0,63,0.00,,---,0.00,VWS V14.01,2013-08-23 03:18:00,
2013-08-22 22:23:00,65.2,52.7,30.03,NE,56,0.0,0.0,64,0.00,,---,0.00,VWS V14.01,2013-08-23 03:23:00,
2013-08-22 22:28:00,65.0,53.0,30.03,NE,56,0.0,0.0,65,0.00,,---,0.00,VWS V14.01,2013-08-23 03:28:00,
2013-08-22 22:33:00,64.8,51.9,30.03,NE,56,0.0,0.0,63,0.00,,---,0.00,VWS V14.01,2013-08-23 03:33:00,
2013-08-22 22:38:00,65.0,51.7,30.03,NE,56,0.0,0.0,62,0.00,,---,0.00,VWS V14.01,2013-08-23 03:38:00,
2013-08-22 22:43:00,65.0,51.7,30.03,NE,56,0.0,0.0,62,0.00,,---,0.00,VWS V14.01,2013-08-23 03:43:00,
2013-08-22 22:48:00,65.0,51.7,30.03,NE,56,0.0,0.0,62,0.00,,---,0.00,VWS V14.01,2013-08-23 03:48:00,
2013-08-22 22:53:00,64.8,51.9,30.03,NE,56,0.0,0.0,63,0.00,,---,0.00,VWS V14.01,2013-08-23 03:53:00,
2013-08-22 22:58:00,64.5,52.1,30.03,NE,56,0.0,0.0,64,0.00,,---,0.00,VWS V14.01,2013-08-23 03:58:00,
2013-08-22 23:01:00,64.3,51.5,30.03,NE,56,0.0,0.0,63,0.00,,---,0.00,VWS V14.01,2013-08-23 04:01:00,
2013-08-22 23:06:00,64.2,52.2,30.03,NE,56,0.0,0.0,65,0.00,,---,0.00,VWS V14.01,2013-08-23 04:06:00,
2013-08-22 23:11:00,63.9,51.9,30.03,NE,56,0.0,0.0,65,0.00,,---,0.00,VWS V14.01,2013-08-23 04:11:00,
2013-08-22 23:16:00,63.7,51.7,30.03,ENE,69,0.0,0.0,65,0.00,,---,0.00,VWS V14.01,2013-08-23 04:16:00,
2013-08-22 23:21:00,63.7,51.7,30.03,ENE,68,0.0,0.0,65,0.00,,---,0.00,VWS V14.01,2013-08-23 04:21:00,
2013-08-22 23:26:00,63.5,51.5,30.03,ENE,68,0.0,0.0,65,0.00,,---,0.00,VWS V14.01,2013-08-23 04:26:00,
2013-08-22 23:31:00,63.4,51.9,30.03,ENE,68,0.0,0.0,66,0.00,,---,0.00,VWS V14.01,2013-08-23 04:31:00,
2013-08-22 23:36:00,63.2,51.2,30.03,ENE,69,0.0,0.0,65,0.00,,---,0.00,VWS V14.01,2013-08-23 04:36:00,
2013-08-22 23:41:00,63.1,51.6,30.03,ENE,69,0.0,0.0,66,0.00,,---,0.00,VWS V14.01,2013-08-23 04:41:00,
2013-08-22 23:46:00,62.9,51.4,30.04,ENE,68,0.0,0.0,66,0.00,,---,0.00,VWS V14.01,2013-08-23 04:46:00,
2013-08-22 23:51:00,62.7,51.2,30.04,ENE,65,0.0,0.0,66,0.00,,---,0.00,VWS V14.01,2013-08-23 04:51:00,
2013-08-22 23:56:00,62.7,51.6,30.04,ENE,61,0.0,0.0,67,0.00,,---,0.00,VWS V14.01,2013-08-23 04:56:00,